Volver al catálogo

STARLINK-35648

ActivoComunicacionesVLEO
NORAD 66482·PAYLOAD·🇺🇸 United States

Lanzado Nov 15, 2025 desde Cape Canaveral Space Force Station

Loading…

Próximos Pases (próximas 24 horas)

TLE

ActualizadoSource: CelesTrak SupGP

Época: Sep 14, 2026, 23:06 UTC

1 66482C 25262AC  26257.96298611  .00017845  00000+0  64610-3 0  2578
2 66482  43.0004 307.1272 0001581 270.0509 127.6490 15.27581069    13

Sigue STARLINK-35648 en tiempo real con AllMySat

Download on the App Store